Clarksburg, WV

11:27 PM EDT on October 23, 2017 (GMT -0400)
Benedum

Weather History for KCKB - December, 2013

Change the Weather History Date:

Sunday, December 29, 2013

  Actual Average Record
Temperature  
Mean Temperature 40 °F -  
Max Temperature 43 °F 40 °F 72 °F (1984)
Min Temperature 37 °F 23 °F 0 °F (2015)
Degree Days  
Heating Degree Days 25    
Moisture  
Dew Point 38 °F    
Average Humidity 89    
Maximum Humidity 100    
Minimum Humidity 65    
Precipitation  
Precipitation 0.66 in - - ()
Sea Level Pressure  
Sea Level Pressure 29.79 in    
Wind  
Wind Speed 5 mph (West)    
Max Wind Speed 15 mph    
Max Gust Speed 23 mph    
Visibility 6 miles    
Events Fog , Rain    
Averages and records for this station are not official NWS values.
T = Trace of Precipitation, MM = Missing Value Source: NWS Daily Summary

Daily Weather History Graph

Daily Weather History Graph

Search for Another Location

Airport or City:

Trip Planner

Search our weather history database for the weather conditions in past years. The results will help you decide how hot, cold, wet, or windy it might be!

Date:

Astronomy

Dec. 29, 2013 Rise Set
Actual Time 7:40 AM EST 5:06 PM EST
Civil Twilight 7:10 AM EST 5:36 PM EST
Nautical Twilight 6:36 AM EST 6:09 PM EST
Astronomical Twilight 6:03 AM EST 6:42 PM EST
Moon 4:22 AM EST (12/29) 2:42 PM EST (12/29)
Length of Visible Light 10h 26m
Length of Day
9h 25m
Waning Crescent, 11% of the Moon is Illuminated
Dec 29
Waning Crescent
Jan 1
New
Jan 7
First Quarter
Jan 15
Full
Jan 24
Last Quarter

Hourly Weather History & Observations

Time (EST) Temp. Windchill Dew Point Humidity Pressure Visibility Wind Dir Wind Speed Gust Speed Precip Events Conditions
12:53 AM 37.9 °F - 27.0 °F 65% 30.04 in 10.0 mi Calm Calm - N/A   Scattered Clouds
4:53 AM 41.0 °F 36.4 °F 35.1 °F 79% 29.93 in 9.0 mi East 6.9 mph - 0.02 in Rain Light Rain
5:53 AM 41.0 °F 37.1 °F 37.0 °F 86% 29.88 in 7.0 mi NE 5.8 mph - 0.05 in Rain Rain
6:53 AM 39.9 °F - 37.9 °F 93% 29.84 in 4.0 mi Calm Calm - 0.08 in Rain Rain
7:14 AM 39.2 °F - 37.4 °F 93% 29.84 in 2.0 mi Calm Calm - 0.04 in Rain Rain
7:21 AM 39.2 °F 37.0 °F 37.4 °F 93% 29.84 in 1.8 mi NNW 3.5 mph - 0.06 in Rain Rain
7:26 AM 39.2 °F 37.0 °F 37.4 °F 93% 29.84 in 3.0 mi North 3.5 mph - 0.07 in Rain Rain
7:53 AM 39.0 °F - 37.9 °F 96% 29.84 in 4.0 mi Calm Calm - 0.14 in Rain Heavy Rain
8:24 AM 39.2 °F 37.0 °F 37.4 °F 93% 29.81 in 3.0 mi NNE 3.5 mph - 0.07 in Rain Rain
8:53 AM 39.9 °F 37.8 °F 39.0 °F 97% 29.80 in 5.0 mi North 3.5 mph - 0.09 in Rain Light Rain
9:39 AM 39.2 °F 35.9 °F 39.2 °F 100% 29.77 in 4.0 mi NNE 4.6 mph - 0.01 in   Overcast
9:53 AM 41.0 °F - 39.0 °F 93% 29.76 in 2.5 mi Calm Calm - 0.01 in Rain Light Rain
10:01 AM 41.0 °F - 39.2 °F 93% 29.76 in 1.0 mi Calm Calm - 0.00 in Rain Light Rain
10:53 AM 42.1 °F - 39.9 °F 92% 29.71 in 1.0 mi Calm Calm - 0.02 in Rain Light Rain
11:02 AM 42.8 °F - 39.2 °F 87% 29.70 in 1.0 mi Calm Calm - 0.01 in Rain Light Rain
11:11 AM 42.8 °F - 41.0 °F 93% 29.70 in 1.0 mi Calm Calm - 0.01 in Rain Light Rain
11:28 AM 42.8 °F - 39.2 °F 87% 29.68 in 2.0 mi Calm Calm - 0.02 in Rain Light Rain
11:40 AM 42.8 °F - 41.0 °F 93% 29.68 in 0.5 mi Calm Calm - 0.02 in Fog , Rain Light Rain
11:53 AM 42.1 °F 40.2 °F 39.9 °F 92% 29.67 in 0.2 mi West 3.5 mph - 0.03 in Fog , Rain Light Rain
12:53 PM 43.0 °F 40.3 °F 41.0 °F 93% 29.68 in 0.2 mi West 4.6 mph - 0.08 in Rain Rain
1:00 PM 42.8 °F 40.1 °F 41.0 °F 93% 29.67 in 3.0 mi West 4.6 mph - 0.01 in Rain Rain
1:15 PM 42.8 °F 39.3 °F 41.0 °F 93% 29.68 in 2.0 mi WSW 5.8 mph - 0.02 in Rain Light Rain
1:40 PM 42.8 °F 37.5 °F 41.0 °F 93% 29.68 in 2.0 mi WSW 9.2 mph - 0.04 in Rain Rain
1:53 PM 43.0 °F 38.2 °F 41.0 °F 93% 29.69 in 2.0 mi West 8.1 mph - 0.06 in Rain Light Rain
2:00 PM 42.8 °F 35.8 °F 39.2 °F 87% 29.69 in 8.0 mi WSW 13.8 mph 21.9 mph 0.01 in Rain Light Rain
2:07 PM 42.8 °F 37.0 °F 39.2 °F 87% 29.69 in 10.0 mi WSW 10.4 mph 21.9 mph 0.01 in Rain Light Rain
2:10 PM 42.8 °F 36.2 °F 39.2 °F 87% 29.69 in 10.0 mi WSW 12.7 mph 19.6 mph 0.01 in Rain Light Rain
2:13 PM 42.8 °F 37.0 °F 39.2 °F 87% 29.69 in 10.0 mi West 10.4 mph - 0.01 in Rain Light Rain
2:35 PM 42.8 °F 37.5 °F 39.2 °F 87% 29.70 in 8.0 mi WSW 9.2 mph 17.3 mph 0.03 in Rain Light Rain
2:48 PM 42.8 °F 37.5 °F 39.2 °F 87% 29.71 in 6.0 mi West 9.2 mph - 0.04 in Rain Rain
2:53 PM 42.1 °F 36.6 °F 39.9 °F 92% 29.72 in 6.0 mi West 9.2 mph - 0.05 in Rain Light Rain
3:53 PM 43.0 °F 38.2 °F 39.0 °F 86% 29.75 in 10.0 mi West 8.1 mph - 0.02 in Rain Light Rain
4:45 PM 42.8 °F 38.6 °F 39.2 °F 87% 29.78 in 10.0 mi WSW 6.9 mph - 0.00 in   Overcast
4:53 PM 42.1 °F 37.7 °F 39.0 °F 89% 29.79 in 10.0 mi WSW 6.9 mph - 0.00 in   Overcast
5:28 PM 42.8 °F 38.0 °F 39.2 °F 87% 29.79 in 9.0 mi WSW 8.1 mph - 0.00 in   Overcast
5:53 PM 42.1 °F 37.1 °F 39.9 °F 92% 29.81 in 9.0 mi WSW 8.1 mph - 0.00 in   Overcast
6:53 PM 42.1 °F 36.1 °F 39.9 °F 92% 29.83 in 3.0 mi SW 10.4 mph - 0.00 in Rain Light Rain
7:53 PM 42.1 °F 34.9 °F 39.0 °F 89% 29.85 in 10.0 mi WSW 13.8 mph - 0.00 in   Overcast
8:53 PM 41.0 °F 35.2 °F 37.9 °F 89% 29.88 in 2.5 mi WSW 9.2 mph 18.4 mph 0.00 in Rain Light Rain
9:01 PM 41.0 °F 34.3 °F 37.4 °F 87% 29.87 in 3.0 mi SW 11.5 mph - 0.00 in Rain Light Rain
9:28 PM 41.0 °F 33.1 °F 37.4 °F 87% 29.88 in 8.0 mi WSW 15.0 mph 23.0 mph 0.01 in Rain Light Rain
9:53 PM 39.9 °F 33.4 °F 37.0 °F 89% 29.89 in 10.0 mi WSW 10.4 mph 19.6 mph 0.01 in   Overcast
10:53 PM 39.9 °F 32.5 °F 36.0 °F 86% 29.91 in 9.0 mi WSW 12.7 mph 19.6 mph 0.00 in   Overcast
11:19 PM 39.2 °F 33.6 °F 35.6 °F 87% 29.90 in 10.0 mi SW 8.1 mph - 0.00 in   Overcast
11:34 PM 39.2 °F 33.6 °F 35.6 °F 87% 29.90 in 10.0 mi WSW 8.1 mph - 0.00 in   Overcast
11:44 PM 39.2 °F 34.2 °F 35.6 °F 87% 29.89 in 10.0 mi WSW 6.9 mph - 0.00 in   Overcast
11:53 PM 39.9 °F 35.1 °F 36.0 °F 86% 29.90 in 10.0 mi WSW 6.9 mph - 0.00 in   Overcast